{"data":{"norad_id":66765,"intl_designator":"2025-276DD","name":"TRANSPORTER-15 OBJECT DD","alt_names":[],"object_type":"PAYLOAD","status":"ACTIVE","operator":null,"country":"TBD","launch_date":"2025-11-28","launch_site_code":"AFWTR","launch_vehicle":null,"mission":null,"orbit_class":"UNKNOWN","rcs_meters":null,"size_class":null,"mass_kg":null,"dimensions":null,"purposes":[],"wikipedia_slug":null,"has_3d_model":false,"image_url":null,"decayed_at":null,"tle_current":{"epoch":"2026-05-24T22:41:21.568992Z","epoch_age_seconds":73604,"freshness":"FRESH","line1":"1 66765U 25276DD  26144.94538853  .00009275  00000+0  39650-3 0  9992","line2":"2 66765  97.4218 219.5472 0001557 101.7372 258.4040 15.23064751 26939","mean_motion":15.23064751,"eccentricity":0.0001557,"inclination_deg":97.4218,"raan_deg":219.5472,"arg_perigee_deg":101.7372,"mean_anomaly_deg":258.404,"bstar":0.0003965,"rev_number":2693,"period_min":94.546210136801,"perigee_km":495.53236956338,"apogee_km":497.67316352668,"semimajor_km":6874.739766545,"source":"CELESTRAK","updated_at":"2026-05-25T13:38:06.474318Z"}}}